Location: ?ernice
(48.8383°N, 14.3803°E)
Time: 21:32:46
(UTC+00:00)

Meteor 1-21 - Pass Details

Date: 23 May 2024
Orbit: 844 x 886 km, 81.2° (Epoch: 20 June)

Event Time Altitude Azimuth Distance (km) Brightness Sun altitude
Exits shadow 00:04:41 34° 195° (SSW) 1,377 4.7 -19.0°
Maximum altitude 00:07:16 85° 281° (W) 876 4.2 -18.9°
Drops below altitude 10° 00:13:03 10° 11° (N) 2,534 7.9 -18.6°
Sets 00:15:31 0° 12° (NNE) 3,482 9.1 -18.5°
